World > North America > United States > Ohio

Hourly Dungannon, OH Regional Weather

Feedback E-mail the Weather

Quick WX

Dungannon, OH Weather Maps

°F °C°F °C
Dungannon Weather Map
UTC Time: 6/30/2022, 19:42
Your Time:

Dungannon, OH Regional Weather

Expires:202206302000;;453801
ASUS41 KCLE 301912
RWRCLE
OHIO REGIONAL WEATHER ROUNDUP
NATIONAL WEATHER SERVICE WILMINGTON, OH
300 PM EDT THU JUN 30 2022

NOTE: "FAIR" INDICATES FEW OR NO CLOUDS BELOW 12,000 FEET WITH NO
SIGNIFICANT WEATHER AND/OR OBSTRUCTIONS TO VISIBILITY.


OHZ036-037-039>041-045>050-054>059-063>069-073>076-082>088-302000-
  CENTRAL AND SOUTHEAST OHIO
  
CITY           SKY/WX    TMP DP  RH WIND       PRES   REMARKS
COLUMBUS       FAIR      88  50  27 S12       30.13F                  
OSU AIRPORT    FAIR      89  50  26 SE8       30.13F                  
BOLTON FIELD   SUNNY     88  55  33 S10G21    30.15F                  
RICKENBACK AFB FAIR      89  51  27 S9        30.13F                  
NEWARK         FAIR      89  53  29 S7        30.14F                  
MARION         NOT AVBL                                               
LANCASTER      FAIR      87  54  32 S8        30.15F                  
ZANESVILLE     FAIR      86  54  33 S6        30.16F                  
NEW PHILLY     FAIR      87  55  33 VRB7      30.16F                  
$$
  

SKY/WX - Weather  TMP - Temperature  DP - Dew Point  RH - Humidity
WIND - Wind Direction/Speed PRES - Barometric Pressure VSB - Visibility
WCI - Wind Chill Index E13G22 Wind - East Wind 13 mph/Gusts of 22 mph

Trending Headlines

Dungannon Radar Loop



Dungannon Quick Facts


National Two Day Weather Forecast


E-mail the Dungannon Weather Forecast

Voice your opinion or tell us about page issues...